Time,TemperatureF,DewpointF,PressureIn,WindDirection,WindDirectionDegrees,WindSpeedMPH,WindSpeedGustMPH,Humidity,HourlyPrecipIn,Conditions,Clouds,dailyrainin,SoftwareType,DateUTC
2013-06-27 00:01:00,75.6,27.8,30.04,NNW,342,0.0,0.0,17,0.00,,---,0.00,VWS V14.01,2013-06-27 07:01:00,
2013-06-27 00:06:00,75.5,29.1,30.03,NNW,342,0.0,0.0,18,0.00,,---,0.00,VWS V14.01,2013-06-27 07:06:00,
2013-06-27 00:11:00,75.3,28.9,30.04,NNW,342,0.0,0.0,18,0.00,,---,0.00,VWS V14.01,2013-06-27 07:11:00,
2013-06-27 00:16:00,75.7,29.2,30.04,NNE,17,0.0,1.0,18,0.00,,---,0.00,VWS V14.01,2013-06-27 07:16:00,
2013-06-27 00:21:00,76.1,29.6,30.04,NNE,17,0.0,0.0,18,0.00,,---,0.00,VWS V14.01,2013-06-27 07:21:00,
2013-06-27 00:26:00,75.9,30.7,30.04,NNE,17,0.0,0.0,19,0.00,,---,0.00,VWS V14.01,2013-06-27 07:26:00,
2013-06-27 00:31:00,75.6,30.5,30.04,NNE,21,0.0,0.0,19,0.00,,---,0.00,VWS V14.01,2013-06-27 07:31:00,
2013-06-27 00:36:00,75.9,28.0,30.04,NE,55,0.0,1.0,17,0.00,,---,0.00,VWS V14.01,2013-06-27 07:36:00,
2013-06-27 00:41:00,76.2,25.2,30.04,ENE,73,0.0,1.0,15,0.00,,---,0.00,VWS V14.01,2013-06-27 07:41:00,
2013-06-27 00:46:00,76.8,25.7,30.04,East,86,0.0,2.0,15,0.00,,---,0.00,VWS V14.01,2013-06-27 07:46:00,
2013-06-27 00:51:00,77.3,24.4,30.04,East,89,0.0,0.0,14,0.00,,---,0.00,VWS V14.01,2013-06-27 07:51:00,
2013-06-27 00:56:00,77.5,24.6,30.05,East,85,0.0,1.0,14,0.00,,---,0.00,VWS V14.01,2013-06-27 07:56:00,
2013-06-27 01:01:00,77.4,24.5,30.05,East,84,0.0,0.0,14,0.00,,---,0.00,VWS V14.01,2013-06-27 08:01:00,
2013-06-27 01:06:00,77.0,25.9,30.05,East,84,0.0,0.0,15,0.00,,---,0.00,VWS V14.01,2013-06-27 08:06:00,
2013-06-27 01:11:00,76.4,25.4,30.05,East,82,0.0,0.0,15,0.00,,---,0.00,VWS V14.01,2013-06-27 08:11:00,
2013-06-27 01:16:00,76.1,30.9,30.05,East,82,0.0,0.0,19,0.00,,---,0.00,VWS V14.01,2013-06-27 08:16:00,
2013-06-27 01:21:00,75.8,26.5,30.05,East,82,0.0,0.0,16,0.00,,---,0.00,VWS V14.01,2013-06-27 08:21:00,
2013-06-27 01:25:00,75.3,26.0,30.05,East,82,0.0,0.0,16,0.00,,---,0.00,VWS V14.01,2013-06-27 08:25:00,
2013-06-27 01:30:00,74.8,29.8,30.05,East,82,0.0,0.0,19,0.00,,---,0.00,VWS V14.01,2013-06-27 08:30:00,
2013-06-27 01:35:00,74.3,26.7,30.05,East,82,0.0,0.0,17,0.00,,---,0.00,VWS V14.01,2013-06-27 08:35:00,
2013-06-27 01:40:00,74.2,25.2,30.05,East,81,0.0,0.0,16,0.00,,---,0.00,VWS V14.01,2013-06-27 08:40:00,
2013-06-27 01:45:00,74.4,25.3,30.05,East,81,0.0,1.0,16,0.00,,---,0.00,VWS V14.01,2013-06-27 08:45:00,
2013-06-27 01:50:00,74.6,25.5,30.05,East,81,0.0,0.0,16,0.00,,---,0.00,VWS V14.01,2013-06-27 08:50:00,
2013-06-27 01:55:00,74.5,26.9,30.05,East,81,0.0,0.0,17,0.00,,---,0.00,VWS V14.01,2013-06-27 08:55:00,
2013-06-27 02:00:00,74.1,27.9,30.05,East,81,0.0,0.0,18,0.00,,---,0.00,VWS V14.01,2013-06-27 09:00:00,
2013-06-27 02:05:00,73.7,27.6,30.06,East,81,0.0,0.0,18,0.00,,---,0.00,VWS V14.01,2013-06-27 09:05:00,
2013-06-27 02:10:00,73.4,28.7,30.06,East,81,0.0,0.0,19,0.00,,---,0.00,VWS V14.01,2013-06-27 09:10:00,
2013-06-27 02:15:00,73.1,28.4,30.06,NNW,339,0.0,0.0,19,0.00,,---,0.00,VWS V14.01,2013-06-27 09:15:00,
2013-06-27 02:20:00,72.9,27.0,30.06,NNW,339,0.0,0.0,18,0.00,,---,0.00,VWS V14.01,2013-06-27 09:20:00,
2013-06-27 02:25:00,72.8,26.9,30.06,NNW,339,0.0,0.0,18,0.00,,---,0.00,VWS V14.01,2013-06-27 09:25:00,
2013-06-27 02:30:00,72.7,28.1,30.06,NNW,339,0.0,0.0,19,0.00,,---,0.00,VWS V14.01,2013-06-27 09:30:00,
2013-06-27 02:35:00,72.4,27.9,30.06,NNW,339,0.0,0.0,19,0.00,,---,0.00,VWS V14.01,2013-06-27 09:35:00,
2013-06-27 02:40:00,72.0,28.8,30.06,NNW,339,0.0,0.0,20,0.00,,---,0.00,VWS V14.01,2013-06-27 09:40:00,
2013-06-27 02:45:00,71.6,28.4,30.06,North,355,0.0,0.0,20,0.00,,---,0.00,VWS V14.01,2013-06-27 09:45:00,
2013-06-27 02:50:00,71.5,29.5,30.06,North,355,0.0,0.0,21,0.00,,---,0.00,VWS V14.01,2013-06-27 09:50:00,
2013-06-27 02:55:00,71.1,29.2,30.06,North,355,0.0,0.0,21,0.00,,---,0.00,VWS V14.01,2013-06-27 09:55:00,
2013-06-27 03:00:00,70.8,27.8,30.06,North,9,0.0,1.0,20,0.00,,---,0.00,VWS V14.01,2013-06-27 10:00:00,
2013-06-27 03:05:00,71.3,28.2,30.06,ENE,60,0.0,1.0,20,0.00,,---,0.00,VWS V14.01,2013-06-27 10:05:00,
2013-06-27 03:10:00,72.2,26.4,30.06,ENE,71,2.0,2.0,18,0.00,,---,0.00,VWS V14.01,2013-06-27 10:10:00,
2013-06-27 03:15:00,73.1,27.1,30.06,ENE,68,0.0,1.0,18,0.00,,---,0.00,VWS V14.01,2013-06-27 10:15:00,
2013-06-27 03:20:00,73.3,28.6,30.07,ESE,123,0.0,1.0,19,0.00,,---,0.00,VWS V14.01,2013-06-27 10:20:00,
2013-06-27 03:25:00,73.1,28.4,30.07,SE,139,0.0,1.0,19,0.00,,---,0.00,VWS V14.01,2013-06-27 10:25:00,
2013-06-27 03:30:00,72.6,26.7,30.06,SE,139,0.0,0.0,18,0.00,,---,0.00,VWS V14.01,2013-06-27 10:30:00,
2013-06-27 03:35:00,72.3,29.0,30.06,SE,139,0.0,0.0,20,0.00,,---,0.00,VWS V14.01,2013-06-27 10:35:00,
2013-06-27 03:40:00,71.8,28.6,30.06,SE,139,0.0,0.0,20,0.00,,---,0.00,VWS V14.01,2013-06-27 10:40:00,
2013-06-27 03:45:00,71.5,28.4,30.07,SE,131,0.0,0.0,20,0.00,,---,0.00,VWS V14.01,2013-06-27 10:45:00,
2013-06-27 03:50:00,71.5,28.4,30.07,SE,131,0.0,0.0,20,0.00,,---,0.00,VWS V14.01,2013-06-27 10:50:00,
2013-06-27 03:55:00,71.3,30.5,30.07,SE,131,0.0,0.0,22,0.00,,---,0.00,VWS V14.01,2013-06-27 10:55:00,
2013-06-27 04:00:00,70.7,28.9,30.07,SE,131,0.0,0.0,21,0.00,,---,0.00,VWS V14.01,2013-06-27 11:00:00,
2013-06-27 04:05:00,70.3,28.5,30.07,SE,131,0.0,0.0,21,0.00,,---,0.00,VWS V14.01,2013-06-27 11:05:00,
2013-06-27 04:10:00,70.3,29.7,30.07,SE,131,0.0,0.0,22,0.00,,---,0.00,VWS V14.01,2013-06-27 11:10:00,
2013-06-27 04:15:00,70.2,29.6,30.08,SE,131,0.0,0.0,22,0.00,,---,0.00,VWS V14.01,2013-06-27 11:15:00,
2013-06-27 04:20:00,69.7,30.3,30.08,SE,131,0.0,0.0,23,0.00,,---,0.00,VWS V14.01,2013-06-27 11:20:00,
2013-06-27 04:25:00,69.5,30.1,30.08,SE,131,0.0,0.0,23,0.00,,---,0.00,VWS V14.01,2013-06-27 11:25:00,
2013-06-27 04:30:00,69.6,30.2,30.08,SE,131,0.0,0.0,23,0.00,,---,0.00,VWS V14.01,2013-06-27 11:30:00,
2013-06-27 04:35:00,69.8,31.4,30.08,SE,131,0.0,0.0,24,0.00,,---,0.00,VWS V14.01,2013-06-27 11:35:00,
2013-06-27 04:40:00,70.1,31.7,30.08,SE,131,0.0,0.0,24,0.00,,---,0.00,VWS V14.01,2013-06-27 11:40:00,
2013-06-27 04:45:00,70.4,32.9,30.08,SE,131,0.0,0.0,25,0.00,,---,0.00,VWS V14.01,2013-06-27 11:45:00,
2013-06-27 04:50:00,70.7,34.2,30.08,SE,131,0.0,0.0,26,0.00,,---,0.00,VWS V14.01,2013-06-27 11:50:00,
2013-06-27 04:55:00,70.4,32.9,30.09,SE,131,0.0,0.0,25,0.00,,---,0.00,VWS V14.01,2013-06-27 11:55:00,
2013-06-27 05:00:00,70.0,32.6,30.09,SE,131,0.0,0.0,25,0.00,,---,0.00,VWS V14.01,2013-06-27 12:00:00,
2013-06-27 05:05:00,69.5,34.1,30.09,SE,131,0.0,0.0,27,0.00,,---,0.00,VWS V14.01,2013-06-27 12:05:00,
2013-06-27 05:10:00,69.5,35.0,30.09,SE,131,0.0,1.0,28,0.00,,---,0.00,VWS V14.01,2013-06-27 12:10:00,
2013-06-27 05:15:00,69.6,35.1,30.09,SE,131,0.0,0.0,28,0.00,,---,0.00,VWS V14.01,2013-06-27 12:15:00,
2013-06-27 05:20:00,69.5,35.9,30.10,SE,131,0.0,0.0,29,0.00,,---,0.00,VWS V14.01,2013-06-27 12:20:00,
2013-06-27 05:25:00,69.5,36.7,30.10,SE,131,0.0,0.0,30,0.00,,---,0.00,VWS V14.01,2013-06-27 12:25:00,
2013-06-27 05:30:00,69.7,36.9,30.10,SE,131,0.0,0.0,30,0.00,,---,0.00,VWS V14.01,2013-06-27 12:30:00,
2013-06-27 05:35:00,69.9,37.1,30.10,SE,131,0.0,0.0,30,0.00,,---,0.00,VWS V14.01,2013-06-27 12:35:00,
2013-06-27 05:40:00,70.4,37.5,30.10,SE,129,0.0,1.0,30,0.00,,---,0.00,VWS V14.01,2013-06-27 12:40:00,
2013-06-27 05:45:00,71.2,37.3,30.10,SE,129,0.0,0.0,29,0.00,,---,0.00,VWS V14.01,2013-06-27 12:45:00,
2013-06-27 05:50:00,72.1,36.3,30.10,East,92,0.0,2.0,27,0.00,,---,0.00,VWS V14.01,2013-06-27 12:50:00,
2013-06-27 05:55:00,72.9,39.7,30.11,East,92,0.0,0.0,30,0.00,,---,0.00,VWS V14.01,2013-06-27 12:55:00,
2013-06-27 06:00:00,73.3,40.0,30.11,East,92,0.0,0.0,30,0.00,,---,0.00,VWS V14.01,2013-06-27 13:00:00,
2013-06-27 06:05:00,73.4,41.8,30.11,East,92,0.0,0.0,32,0.00,,---,0.00,VWS V14.01,2013-06-27 13:05:00,
2013-06-27 06:10:00,73.3,42.5,30.11,East,92,0.0,1.0,33,0.00,,---,0.00,VWS V14.01,2013-06-27 13:10:00,
2013-06-27 06:15:00,73.4,44.1,30.11,East,92,0.0,0.0,35,0.00,,---,0.00,VWS V14.01,2013-06-27 13:15:00,
2013-06-27 06:20:00,73.7,43.6,30.11,East,92,0.0,0.0,34,0.00,,---,0.00,VWS V14.01,2013-06-27 13:20:00,
2013-06-27 06:25:00,74.2,45.6,30.11,East,92,0.0,1.0,36,0.00,,---,0.00,VWS V14.01,2013-06-27 13:25:00,
2013-06-27 06:30:00,74.5,47.2,30.11,East,92,0.0,0.0,38,0.00,,---,0.00,VWS V14.01,2013-06-27 13:30:00,
2013-06-27 06:35:00,75.1,44.8,30.11,East,92,0.0,0.0,34,0.00,,---,0.00,VWS V14.01,2013-06-27 13:35:00,
2013-06-27 06:40:00,76.1,46.5,30.11,East,92,0.0,0.0,35,0.00,,---,0.00,VWS V14.01,2013-06-27 13:40:00,
2013-06-27 06:45:00,77.1,48.1,30.11,East,92,0.0,0.0,36,0.00,,---,0.00,VWS V14.01,2013-06-27 13:45:00,
2013-06-27 06:50:00,77.8,51.6,30.11,East,92,0.0,0.0,40,0.00,,---,0.00,VWS V14.01,2013-06-27 13:50:00,
2013-06-27 06:55:00,78.5,52.9,30.11,East,92,0.0,0.0,41,0.00,,---,0.00,VWS V14.01,2013-06-27 13:55:00,
2013-06-27 07:00:00,78.7,52.4,30.11,East,92,0.0,0.0,40,0.00,,---,0.00,VWS V14.01,2013-06-27 14:00:00,
2013-06-27 07:05:00,78.4,52.1,30.11,East,92,0.0,0.0,40,0.00,,---,0.00,VWS V14.01,2013-06-27 14:05:00,
2013-06-27 07:10:00,78.0,47.4,30.11,East,92,0.0,0.0,34,0.00,,---,0.00,VWS V14.01,2013-06-27 14:10:00,
2013-06-27 07:15:00,78.1,47.5,30.12,East,92,0.0,0.0,34,0.00,,---,0.00,VWS V14.01,2013-06-27 14:15:00,
2013-06-27 07:20:00,78.5,46.2,30.12,East,92,0.0,0.0,32,0.00,,---,0.00,VWS V14.01,2013-06-27 14:20:00,
2013-06-27 07:25:00,78.9,45.7,30.12,East,92,0.0,0.0,31,0.00,,---,0.00,VWS V14.01,2013-06-27 14:25:00,
2013-06-27 07:30:00,79.4,45.3,30.12,East,98,0.0,0.0,30,0.00,,---,0.00,VWS V14.01,2013-06-27 14:30:00,
2013-06-27 07:35:00,79.8,41.9,30.12,SSW,202,0.0,1.0,26,0.00,,---,0.00,VWS V14.01,2013-06-27 14:35:00,
2013-06-27 07:40:00,80.0,43.0,30.12,SSW,202,0.0,0.0,27,0.00,,---,0.00,VWS V14.01,2013-06-27 14:40:00,
2013-06-27 07:45:00,80.2,41.2,30.12,SSW,206,0.0,0.0,25,0.00,,---,0.00,VWS V14.01,2013-06-27 14:45:00,
2013-06-27 07:50:00,80.7,42.7,30.12,SSW,206,0.0,0.0,26,0.00,,---,0.00,VWS V14.01,2013-06-27 14:50:00,
2013-06-27 07:55:00,81.2,43.1,30.12,SSW,206,0.0,0.0,26,0.00,,---,0.00,VWS V14.01,2013-06-27 14:55:00,
2013-06-27 08:00:00,81.9,42.7,30.12,SSW,206,0.0,0.0,25,0.00,,---,0.00,VWS V14.01,2013-06-27 15:00:00,
2013-06-27 08:05:00,82.5,44.2,30.12,SSW,206,0.0,0.0,26,0.00,,---,0.00,VWS V14.01,2013-06-27 15:05:00,
2013-06-27 08:10:00,83.3,44.9,30.12,SSW,206,0.0,0.0,26,0.00,,---,0.00,VWS V14.01,2013-06-27 15:10:00,
2013-06-27 08:15:00,84.3,43.6,30.11,SSW,206,0.0,0.0,24,0.00,,---,0.00,VWS V14.01,2013-06-27 15:15:00,
2013-06-27 08:20:00,85.2,42.1,30.11,SSW,206,0.0,0.0,22,0.00,,---,0.00,VWS V14.01,2013-06-27 15:20:00,
2013-06-27 08:25:00,85.8,42.6,30.11,SSW,206,0.0,0.0,22,0.00,,---,0.00,VWS V14.01,2013-06-27 15:25:00,
2013-06-27 08:30:00,86.3,43.0,30.11,SW,226,1.0,2.0,22,0.00,,---,0.00,VWS V14.01,2013-06-27 15:30:00,
2013-06-27 08:35:00,86.4,41.9,30.11,SSW,205,1.0,1.0,21,0.00,,---,0.00,VWS V14.01,2013-06-27 15:35:00,
2013-06-27 08:40:00,86.6,40.8,30.12,SSW,200,0.0,0.0,20,0.00,,---,0.00,VWS V14.01,2013-06-27 15:40:00,
2013-06-27 08:45:00,87.1,41.2,30.11,WSW,248,1.0,1.0,20,0.00,,---,0.00,VWS V14.01,2013-06-27 15:45:00,
2013-06-27 08:50:00,87.5,44.0,30.12,SW,230,1.0,2.0,22,0.00,,---,0.00,VWS V14.01,2013-06-27 15:50:00,
2013-06-27 08:55:00,88.0,43.2,30.11,SW,229,1.0,1.0,21,0.00,,---,0.00,VWS V14.01,2013-06-27 15:55:00,
2013-06-27 09:00:00,88.7,43.8,30.11,SSW,213,0.0,0.0,21,0.00,,---,0.00,VWS V14.01,2013-06-27 16:00:00,
2013-06-27 09:05:00,89.1,44.1,30.11,SSW,213,0.0,0.0,21,0.00,,---,0.00,VWS V14.01,2013-06-27 16:05:00,
2013-06-27 09:10:00,89.5,43.2,30.11,SSW,213,0.0,0.0,20,0.00,,---,0.00,VWS V14.01,2013-06-27 16:10:00,
2013-06-27 09:15:00,89.9,42.2,30.11,SSW,213,0.0,0.0,19,0.00,,---,0.00,VWS V14.01,2013-06-27 16:15:00,
2013-06-27 09:20:00,89.9,42.2,30.11,West,273,0.0,0.0,19,0.00,,---,0.00,VWS V14.01,2013-06-27 16:20:00,
2013-06-27 09:25:00,89.9,43.5,30.11,West,273,0.0,1.0,20,0.00,,---,0.00,VWS V14.01,2013-06-27 16:25:00,
2013-06-27 09:30:00,90.5,42.7,30.11,SE,129,1.0,1.0,19,0.00,,---,0.00,VWS V14.01,2013-06-27 16:30:00,
2013-06-27 09:35:00,91.1,40.3,30.11,NNE,30,0.0,1.0,17,0.00,,---,0.00,VWS V14.01,2013-06-27 16:35:00,
2013-06-27 09:40:00,91.1,40.3,30.11,North,9,0.0,0.0,17,0.00,,---,0.00,VWS V14.01,2013-06-27 16:40:00,
2013-06-27 09:45:00,91.3,40.4,30.10,North,9,0.0,0.0,17,0.00,,---,0.00,VWS V14.01,2013-06-27 16:45:00,
2013-06-27 09:50:00,91.7,40.8,30.11,SW,235,0.0,1.0,17,0.00,,---,0.00,VWS V14.01,2013-06-27 16:50:00,
2013-06-27 09:55:00,91.9,40.9,30.11,South,186,0.0,1.0,17,0.00,,---,0.00,VWS V14.01,2013-06-27 16:55:00,
2013-06-27 10:00:00,91.9,40.9,30.11,West,265,0.0,0.0,17,0.00,,---,0.00,VWS V14.01,2013-06-27 17:00:00,
2013-06-27 10:05:00,92.3,39.7,30.10,South,184,0.0,1.0,16,0.00,,---,0.00,VWS V14.01,2013-06-27 17:05:00,
2013-06-27 10:10:00,92.5,41.4,30.10,WNW,288,0.0,0.0,17,0.00,,---,0.00,VWS V14.01,2013-06-27 17:10:00,
2013-06-27 10:15:00,92.9,40.2,30.10,WSW,255,2.0,5.0,16,0.00,,---,0.00,VWS V14.01,2013-06-27 17:15:00,
2013-06-27 10:20:00,92.5,38.2,30.10,SW,229,0.0,2.0,15,0.00,,---,0.00,VWS V14.01,2013-06-27 17:20:00,
2013-06-27 10:25:00,92.7,40.0,30.10,West,271,1.0,2.0,16,0.00,,---,0.00,VWS V14.01,2013-06-27 17:25:00,
2013-06-27 10:30:00,93.5,37.2,30.10,SSW,211,0.0,0.0,14,0.00,,---,0.00,VWS V14.01,2013-06-27 17:30:00,
2013-06-27 10:35:00,94.3,39.6,30.10,SW,220,0.0,1.0,15,0.00,,---,0.00,VWS V14.01,2013-06-27 17:35:00,
2013-06-27 10:40:00,94.5,41.4,30.10,WSW,249,0.0,0.0,16,0.00,,---,0.00,VWS V14.01,2013-06-27 17:40:00,
2013-06-27 10:45:00,94.9,40.1,30.10,WSW,242,2.0,2.0,15,0.00,,---,0.00,VWS V14.01,2013-06-27 17:45:00,
2013-06-27 10:50:00,95.1,38.5,30.10,West,262,0.0,2.0,14,0.00,,---,0.00,VWS V14.01,2013-06-27 17:50:00,
2013-06-27 10:55:00,95.5,38.8,30.09,East,81,0.0,1.0,14,0.00,,---,0.00,VWS V14.01,2013-06-27 17:55:00,
2013-06-27 11:00:00,96.3,37.5,30.09,WSW,238,1.0,2.0,13,0.00,,---,0.00,VWS V14.01,2013-06-27 18:00:00,
2013-06-27 11:05:00,96.6,41.4,30.09,NW,306,1.0,2.0,15,0.00,,---,0.00,VWS V14.01,2013-06-27 18:05:00,
2013-06-27 11:10:00,96.5,41.3,30.09,ESE,109,1.0,1.0,15,0.00,,---,0.00,VWS V14.01,2013-06-27 18:10:00,
2013-06-27 11:15:00,96.7,43.2,30.09,WSW,250,7.0,7.0,16,0.00,,---,0.00,VWS V14.01,2013-06-27 18:15:00,
2013-06-27 11:20:00,96.6,43.1,30.09,SE,143,0.0,3.0,16,0.00,,---,0.00,VWS V14.01,2013-06-27 18:20:00,
2013-06-27 11:25:00,96.9,43.3,30.09,SE,130,5.0,5.0,16,0.00,,---,0.00,VWS V14.01,2013-06-27 18:25:00,
2013-06-27 11:30:00,96.9,41.7,30.08,West,269,0.0,0.0,15,0.00,,---,0.00,VWS V14.01,2013-06-27 18:30:00,
2013-06-27 11:35:00,97.3,43.7,30.08,SSW,201,1.0,2.0,16,0.00,,---,0.00,VWS V14.01,2013-06-27 18:35:00,
2013-06-27 11:40:00,98.0,42.5,30.08,SSW,204,0.0,0.0,15,0.00,,---,0.00,VWS V14.01,2013-06-27 18:40:00,
2013-06-27 11:45:00,98.8,41.4,30.08,SW,232,0.0,1.0,14,0.00,,---,0.00,VWS V14.01,2013-06-27 18:45:00,
2013-06-27 11:50:00,98.9,43.2,30.07,South,184,3.0,7.0,15,0.00,,---,0.00,VWS V14.01,2013-06-27 18:50:00,
2013-06-27 11:55:00,99.1,39.7,30.07,SW,228,0.0,1.0,13,0.00,,---,0.00,VWS V14.01,2013-06-27 18:55:00,
2013-06-27 12:00:00,99.1,39.7,30.07,West,260,11.0,11.0,13,0.00,,---,0.00,VWS V14.01,2013-06-27 19:00:00,
2013-06-27 12:05:00,99.0,39.6,30.07,WSW,237,2.0,2.0,13,0.00,,---,0.00,VWS V14.01,2013-06-27 19:05:00,
2013-06-27 12:10:00,99.5,40.0,30.06,WNW,292,4.0,4.0,13,0.00,,---,0.00,VWS V14.01,2013-06-27 19:10:00,
2013-06-27 12:15:00,100.0,40.4,30.06,SSW,213,7.0,8.0,13,0.00,,---,0.00,VWS V14.01,2013-06-27 19:15:00,
2013-06-27 12:20:00,100.0,38.3,30.06,West,278,6.0,6.0,12,0.00,,---,0.00,VWS V14.01,2013-06-27 19:20:00,
2013-06-27 12:25:00,100.4,40.7,30.05,SW,236,4.0,6.0,13,0.00,,---,0.00,VWS V14.01,2013-06-27 19:25:00,
2013-06-27 12:30:00,100.6,38.8,30.05,SW,224,3.0,7.0,12,0.00,,---,0.00,VWS V14.01,2013-06-27 19:30:00,
2013-06-27 12:35:00,100.8,39.0,30.04,SW,224,3.0,3.0,12,0.00,,---,0.00,VWS V14.01,2013-06-27 19:35:00,
2013-06-27 12:40:00,101.9,37.6,30.04,SW,228,3.0,9.0,11,0.00,,---,0.00,VWS V14.01,2013-06-27 19:40:00,
2013-06-27 12:45:00,102.1,37.7,30.04,NW,304,0.0,0.0,11,0.00,,---,0.00,VWS V14.01,2013-06-27 19:45:00,
2013-06-27 12:50:00,101.7,39.7,30.04,SW,234,7.0,8.0,12,0.00,,---,0.00,VWS V14.01,2013-06-27 19:50:00,
2013-06-27 12:55:00,101.9,37.6,30.03,SSW,212,8.0,11.0,11,0.00,,---,0.00,VWS V14.01,2013-06-27 19:55:00,
2013-06-27 13:00:00,102.2,35.4,30.03,SW,217,9.0,9.0,10,0.00,,---,0.00,VWS V14.01,2013-06-27 20:00:00,
2013-06-27 13:05:00,102.5,35.6,30.02,WSW,241,2.0,3.0,10,0.00,,---,0.00,VWS V14.01,2013-06-27 20:05:00,
2013-06-27 13:10:00,103.0,36.0,30.02,WSW,250,3.0,3.0,10,0.00,,---,0.00,VWS V14.01,2013-06-27 20:10:00,
2013-06-27 13:15:00,103.4,36.3,30.01,SW,231,0.0,0.0,10,0.00,,---,0.00,VWS V14.01,2013-06-27 20:15:00,
2013-06-27 13:20:00,104.5,34.5,30.02,West,262,7.0,8.0,9,0.00,,---,0.00,VWS V14.01,2013-06-27 20:20:00,
2013-06-27 13:25:00,104.4,34.4,30.01,West,281,3.0,3.0,9,0.00,,---,0.00,VWS V14.01,2013-06-27 20:25:00,
2013-06-27 13:30:00,104.6,37.2,30.01,West,274,10.0,15.0,10,0.00,,---,0.00,VWS V14.01,2013-06-27 20:30:00,
2013-06-27 13:35:00,104.5,37.1,30.01,West,266,7.0,9.0,10,0.00,,---,0.00,VWS V14.01,2013-06-27 20:35:00,
2013-06-27 13:40:00,104.3,34.3,30.00,WSW,245,15.0,15.0,9,0.00,,---,0.00,VWS V14.01,2013-06-27 20:40:00,
2013-06-27 13:45:00,104.3,34.3,30.00,WNW,300,12.0,12.0,9,0.00,,---,0.00,VWS V14.01,2013-06-27 20:45:00,
2013-06-27 13:50:00,105.0,34.8,30.00,West,263,7.0,21.0,9,0.00,,---,0.00,VWS V14.01,2013-06-27 20:50:00,
2013-06-27 13:55:00,104.6,34.5,30.00,WSW,246,8.0,10.0,9,0.00,,---,0.00,VWS V14.01,2013-06-27 20:55:00,
2013-06-27 14:00:00,104.6,34.5,29.99,WSW,255,8.0,17.0,9,0.00,,---,0.00,VWS V14.01,2013-06-27 21:00:00,
2013-06-27 14:06:00,104.7,34.6,29.99,West,267,10.0,13.0,9,0.00,,---,0.00,VWS V14.01,2013-06-27 21:06:00,
2013-06-27 14:11:00,105.3,35.1,29.98,WSW,257,10.0,16.0,9,0.00,,---,0.00,VWS V14.01,2013-06-27 21:11:00,
2013-06-27 14:16:00,105.9,35.5,29.98,West,259,2.0,9.0,9,0.00,,---,0.00,VWS V14.01,2013-06-27 21:16:00,
2013-06-27 14:22:00,105.7,35.4,29.98,WNW,296,2.0,13.0,9,0.00,,---,0.00,VWS V14.01,2013-06-27 21:22:00,
2013-06-27 14:27:00,105.7,35.4,29.98,West,275,6.0,15.0,9,0.00,,---,0.00,VWS V14.01,2013-06-27 21:27:00,
2013-06-27 14:32:00,105.8,32.5,29.98,West,271,7.0,13.0,8,0.00,,---,0.00,VWS V14.01,2013-06-27 21:32:00,
2013-06-27 14:38:00,106.5,33.0,29.98,NW,318,8.0,17.0,8,0.00,,---,0.00,VWS V14.01,2013-06-27 21:38:00,
2013-06-27 14:43:00,105.7,35.4,29.98,WNW,286,6.0,19.0,9,0.00,,---,0.00,VWS V14.01,2013-06-27 21:43:00,
2013-06-27 14:48:00,105.0,34.8,29.98,West,267,7.0,15.0,9,0.00,,---,0.00,VWS V14.01,2013-06-27 21:48:00,
2013-06-27 14:53:00,105.0,34.8,29.97,West,265,7.0,27.0,9,0.00,,---,0.00,VWS V14.01,2013-06-27 21:53:00,
2013-06-27 14:58:00,105.9,32.6,29.97,NW,318,8.0,10.0,8,0.00,,---,0.00,VWS V14.01,2013-06-27 21:58:00,
2013-06-27 15:04:00,106.5,36.0,29.97,WSW,250,5.0,11.0,9,0.00,,---,0.00,VWS V14.01,2013-06-27 22:04:00,
2013-06-27 15:09:00,105.6,35.3,29.96,WSW,244,14.0,16.0,9,0.00,,---,0.00,VWS V14.01,2013-06-27 22:09:00,
2013-06-27 15:14:00,105.4,35.1,29.96,WNW,283,6.0,22.0,9,0.00,,---,0.00,VWS V14.01,2013-06-27 22:14:00,
2013-06-27 15:19:00,105.9,32.6,29.96,SW,234,7.0,17.0,8,0.00,,---,0.00,VWS V14.01,2013-06-27 22:19:00,
2013-06-27 15:24:00,105.7,35.4,29.96,WSW,252,4.0,18.0,9,0.00,,---,0.00,VWS V14.01,2013-06-27 22:24:00,
2013-06-27 15:29:00,105.8,35.4,29.96,WSW,250,9.0,19.0,9,0.00,,---,0.00,VWS V14.01,2013-06-27 22:29:00,
2013-06-27 15:35:00,104.8,34.7,29.95,SW,234,13.0,20.0,9,0.00,,---,0.00,VWS V14.01,2013-06-27 22:35:00,
2013-06-27 15:41:00,105.7,35.4,29.95,West,272,6.0,7.0,9,0.00,,---,0.00,VWS V14.01,2013-06-27 22:41:00,
2013-06-27 15:47:00,106.7,33.2,29.95,WNW,284,2.0,10.0,8,0.00,,---,0.00,VWS V14.01,2013-06-27 22:47:00,
2013-06-27 15:53:00,107.5,36.7,29.95,West,268,3.0,9.0,9,0.00,,---,0.00,VWS V14.01,2013-06-27 22:53:00,
2013-06-27 15:58:00,107.5,33.7,29.95,West,279,4.0,13.0,8,0.00,,---,0.00,VWS V14.01,2013-06-27 22:58:00,
2013-06-27 16:03:00,107.4,33.7,29.94,West,265,6.0,11.0,8,0.00,,---,0.00,VWS V14.01,2013-06-27 23:03:00,
2013-06-27 16:08:00,107.2,33.5,29.94,WSW,256,5.0,7.0,8,0.00,,---,0.00,VWS V14.01,2013-06-27 23:08:00,
2013-06-27 16:13:00,107.4,33.7,29.94,West,273,11.0,17.0,8,0.00,,---,0.00,VWS V14.01,2013-06-27 23:13:00,
2013-06-27 16:18:00,106.7,33.2,29.94,WNW,296,5.0,9.0,8,0.00,,---,0.00,VWS V14.01,2013-06-27 23:18:00,
2013-06-27 16:23:00,106.5,36.0,29.93,NW,308,1.0,14.0,9,0.00,,---,0.00,VWS V14.01,2013-06-27 23:23:00,
2013-06-27 16:28:00,106.7,33.2,29.93,NW,305,9.0,15.0,8,0.00,,---,0.00,VWS V14.01,2013-06-27 23:28:00,
2013-06-27 16:33:00,106.7,33.2,29.93,WSW,240,5.0,9.0,8,0.00,,---,0.00,VWS V14.01,2013-06-27 23:33:00,
2013-06-27 16:38:00,106.2,32.8,29.93,WSW,246,1.0,13.0,8,0.00,,---,0.00,VWS V14.01,2013-06-27 23:38:00,
2013-06-27 16:43:00,106.3,35.8,29.93,WNW,290,4.0,11.0,9,0.00,,---,0.00,VWS V14.01,2013-06-27 23:43:00,
2013-06-27 16:48:00,106.6,36.0,29.93,NW,311,0.0,7.0,9,0.00,,---,0.00,VWS V14.01,2013-06-27 23:48:00,
2013-06-27 16:53:00,106.9,33.3,29.93,WSW,246,1.0,8.0,8,0.00,,---,0.00,VWS V14.01,2013-06-27 23:53:00,
2013-06-27 16:58:00,107.1,33.4,29.93,WNW,292,1.0,7.0,8,0.00,,---,0.00,VWS V14.01,2013-06-27 23:58:00,
2013-06-27 17:03:00,107.2,33.5,29.93,West,274,1.0,8.0,8,0.00,,---,0.00,VWS V14.01,2013-06-28 00:03:00,
2013-06-27 17:08:00,106.9,33.3,29.93,WNW,290,3.0,9.0,8,0.00,,---,0.00,VWS V14.01,2013-06-28 00:08:00,
2013-06-27 17:14:00,106.0,32.6,29.92,West,265,1.0,10.0,8,0.00,,---,0.00,VWS V14.01,2013-06-28 00:14:00,
2013-06-27 17:19:00,105.8,35.4,29.92,West,271,1.0,9.0,9,0.00,,---,0.00,VWS V14.01,2013-06-28 00:19:00,
2013-06-27 17:24:00,105.5,35.2,29.92,NW,322,2.0,19.0,9,0.00,,---,0.00,VWS V14.01,2013-06-28 00:24:00,
2013-06-27 17:29:00,104.9,34.8,29.92,West,275,3.0,8.0,9,0.00,,---,0.00,VWS V14.01,2013-06-28 00:29:00,
2013-06-27 17:34:00,104.9,34.8,29.93,WSW,255,1.0,11.0,9,0.00,,---,0.00,VWS V14.01,2013-06-28 00:34:00,
2013-06-27 17:40:00,105.1,32.0,29.93,West,262,1.0,3.0,8,0.00,,---,0.00,VWS V14.01,2013-06-28 00:40:00,
2013-06-27 17:46:00,105.2,32.0,29.93,WSW,254,4.0,4.0,8,0.00,,---,0.00,VWS V14.01,2013-06-28 00:46:00,
2013-06-27 17:51:00,105.2,35.0,29.93,West,279,4.0,9.0,9,0.00,,---,0.00,VWS V14.01,2013-06-28 00:51:00,
2013-06-27 17:56:00,104.2,34.2,29.93,WSW,248,5.0,8.0,9,0.00,,---,0.00,VWS V14.01,2013-06-28 00:56:00,
2013-06-27 18:01:00,103.9,34.0,29.93,WNW,301,1.0,5.0,9,0.00,,---,0.00,VWS V14.01,2013-06-28 01:01:00,
2013-06-27 18:06:00,103.8,34.0,29.93,WNW,299,2.0,10.0,9,0.00,,---,0.00,VWS V14.01,2013-06-28 01:06:00,
2013-06-27 18:12:00,103.8,31.0,29.93,WSW,252,1.0,1.0,8,0.00,,---,0.00,VWS V14.01,2013-06-28 01:12:00,
2013-06-27 18:17:00,103.7,31.0,29.93,West,263,2.0,4.0,8,0.00,,---,0.00,VWS V14.01,2013-06-28 01:17:00,
2013-06-27 18:22:00,103.2,33.5,29.93,SW,235,4.0,8.0,9,0.00,,---,0.00,VWS V14.01,2013-06-28 01:22:00,
2013-06-27 18:27:00,102.7,33.1,29.94,WNW,285,2.0,6.0,9,0.00,,---,0.00,VWS V14.01,2013-06-28 01:27:00,
2013-06-27 18:32:00,102.5,33.0,29.94,WNW,294,4.0,9.0,9,0.00,,---,0.00,VWS V14.01,2013-06-28 01:32:00,
2013-06-27 18:37:00,102.2,32.8,29.94,WSW,242,3.0,9.0,9,0.00,,---,0.00,VWS V14.01,2013-06-28 01:37:00,
2013-06-27 18:43:00,101.7,32.4,29.94,WSW,238,5.0,8.0,9,0.00,,---,0.00,VWS V14.01,2013-06-28 01:43:00,
2013-06-27 18:49:00,101.1,31.9,29.93,West,280,6.0,9.0,9,0.00,,---,0.00,VWS V14.01,2013-06-28 01:49:00,
2013-06-27 18:54:00,100.7,31.6,29.94,West,277,0.0,7.0,9,0.00,,---,0.00,VWS V14.01,2013-06-28 01:54:00,
2013-06-27 18:59:00,100.5,31.5,29.94,WSW,240,0.0,3.0,9,0.00,,---,0.00,VWS V14.01,2013-06-28 01:59:00,
2013-06-27 19:04:00,100.2,31.3,29.94,WSW,242,0.0,4.0,9,0.00,,---,0.00,VWS V14.01,2013-06-28 02:04:00,
2013-06-27 19:09:00,99.9,31.0,29.94,WSW,248,1.0,3.0,9,0.00,,---,0.00,VWS V14.01,2013-06-28 02:09:00,
2013-06-27 19:14:00,99.4,33.3,29.94,WSW,257,0.0,3.0,10,0.00,,---,0.00,VWS V14.01,2013-06-28 02:14:00,
2013-06-27 19:19:00,98.9,30.3,29.95,West,260,0.0,1.0,9,0.00,,---,0.00,VWS V14.01,2013-06-28 02:19:00,
2013-06-27 19:24:00,98.4,32.5,29.95,WNW,292,0.0,4.0,10,0.00,,---,0.00,VWS V14.01,2013-06-28 02:24:00,
2013-06-27 19:29:00,98.0,32.2,29.95,WNW,292,0.0,1.0,10,0.00,,---,0.00,VWS V14.01,2013-06-28 02:29:00,
2013-06-27 19:34:00,97.4,31.8,29.94,WNW,292,0.0,0.0,10,0.00,,---,0.00,VWS V14.01,2013-06-28 02:34:00,
2013-06-27 19:39:00,96.7,33.6,29.94,WNW,292,0.0,1.0,11,0.00,,---,0.00,VWS V14.01,2013-06-28 02:39:00,
2013-06-27 19:44:00,96.0,33.1,29.94,WNW,292,0.0,1.0,11,0.00,,---,0.00,VWS V14.01,2013-06-28 02:44:00,
2013-06-27 19:49:00,95.2,32.5,29.94,WNW,292,0.0,0.0,11,0.00,,---,0.00,VWS V14.01,2013-06-28 02:49:00,
2013-06-27 19:54:00,94.5,34.1,29.95,WNW,292,0.0,0.0,12,0.00,,---,0.00,VWS V14.01,2013-06-28 02:54:00,
2013-06-27 20:00:00,93.9,35.7,29.95,WNW,292,0.0,0.0,13,0.00,,---,0.00,VWS V14.01,2013-06-28 03:00:00,
2013-06-27 20:05:00,93.3,33.2,29.95,WNW,292,0.0,1.0,12,0.00,,---,0.00,VWS V14.01,2013-06-28 03:05:00,
2013-06-27 20:10:00,92.8,34.8,29.95,WNW,292,0.0,0.0,13,0.00,,---,0.00,VWS V14.01,2013-06-28 03:10:00,
2013-06-27 20:15:00,92.6,32.6,29.96,WNW,292,0.0,0.0,12,0.00,,---,0.00,VWS V14.01,2013-06-28 03:15:00,
2013-06-27 20:20:00,92.8,32.8,29.96,WSW,254,0.0,0.0,12,0.00,,---,0.00,VWS V14.01,2013-06-28 03:20:00,
2013-06-27 20:25:00,92.5,32.6,29.96,WSW,254,0.0,0.0,12,0.00,,---,0.00,VWS V14.01,2013-06-28 03:25:00,
2013-06-27 20:30:00,92.3,32.4,29.96,WSW,254,0.0,0.0,12,0.00,,---,0.00,VWS V14.01,2013-06-28 03:30:00,
2013-06-27 20:36:00,92.0,32.2,29.96,WSW,254,0.0,0.0,12,0.00,,---,0.00,VWS V14.01,2013-06-28 03:36:00,
2013-06-27 20:41:00,91.7,33.9,29.97,WSW,254,0.0,0.0,13,0.00,,---,0.00,VWS V14.01,2013-06-28 03:41:00,
2013-06-27 20:46:00,91.0,35.2,29.97,WSW,254,0.0,0.0,14,0.00,,---,0.00,VWS V14.01,2013-06-28 03:46:00,
2013-06-27 20:52:00,90.1,32.7,29.97,West,259,0.0,1.0,13,0.00,,---,0.00,VWS V14.01,2013-06-28 03:52:00,
2013-06-27 20:57:00,89.8,32.5,29.97,NNW,340,0.0,1.0,13,0.00,,---,0.00,VWS V14.01,2013-06-28 03:57:00,
2013-06-27 21:01:00,89.8,34.3,29.97,ENE,64,0.0,0.0,14,0.00,,---,0.00,VWS V14.01,2013-06-28 04:01:00,
2013-06-27 21:06:00,89.7,34.2,29.97,ENE,63,0.0,1.0,14,0.00,,---,0.00,VWS V14.01,2013-06-28 04:06:00,
2013-06-27 21:11:00,89.6,34.2,29.97,ENE,61,0.0,1.0,14,0.00,,---,0.00,VWS V14.01,2013-06-28 04:11:00,
2013-06-27 21:16:00,89.9,34.4,29.98,ENE,78,0.0,3.0,14,0.00,,---,0.00,VWS V14.01,2013-06-28 04:16:00,
2013-06-27 21:21:00,90.2,34.6,29.98,ENE,76,0.0,1.0,14,0.00,,---,0.00,VWS V14.01,2013-06-28 04:21:00,
2013-06-27 21:26:00,90.0,34.5,29.98,ENE,77,1.0,1.0,14,0.00,,---,0.00,VWS V14.01,2013-06-28 04:26:00,
2013-06-27 21:31:00,89.8,36.0,29.98,ENE,77,0.0,1.0,15,0.00,,---,0.00,VWS V14.01,2013-06-28 04:31:00,
2013-06-27 21:36:00,89.4,34.0,29.98,East,96,2.0,3.0,14,0.00,,---,0.00,VWS V14.01,2013-06-28 04:36:00,
2013-06-27 21:41:00,89.6,34.2,29.98,East,84,0.0,1.0,14,0.00,,---,0.00,VWS V14.01,2013-06-28 04:41:00,
2013-06-27 21:46:00,89.5,34.1,29.98,East,80,0.0,1.0,14,0.00,,---,0.00,VWS V14.01,2013-06-28 04:46:00,
2013-06-27 21:51:00,89.3,33.9,29.98,East,80,0.0,0.0,14,0.00,,---,0.00,VWS V14.01,2013-06-28 04:51:00,
2013-06-27 21:56:00,88.9,35.3,29.98,East,80,0.0,0.0,15,0.00,,---,0.00,VWS V14.01,2013-06-28 04:56:00,
2013-06-27 22:01:00,88.3,34.8,29.99,SE,125,0.0,1.0,15,0.00,,---,0.00,VWS V14.01,2013-06-28 05:01:00,
2013-06-27 22:06:00,87.7,34.4,29.99,SSE,152,0.0,0.0,15,0.00,,---,0.00,VWS V14.01,2013-06-28 05:06:00,
2013-06-27 22:11:00,87.1,35.5,29.99,SSE,152,0.0,1.0,16,0.00,,---,0.00,VWS V14.01,2013-06-28 05:11:00,
2013-06-27 22:16:00,86.4,36.5,29.99,SE,130,0.0,0.0,17,0.00,,---,0.00,VWS V14.01,2013-06-28 05:16:00,
2013-06-27 22:21:00,85.6,37.3,29.99,SE,130,0.0,0.0,18,0.00,,---,0.00,VWS V14.01,2013-06-28 05:21:00,
2013-06-27 22:26:00,84.9,36.7,29.99,ESE,108,0.0,0.0,18,0.00,,---,0.00,VWS V14.01,2013-06-28 05:26:00,
2013-06-27 22:31:00,84.4,36.3,29.99,ESE,102,0.0,1.0,18,0.00,,---,0.00,VWS V14.01,2013-06-28 05:31:00,
2013-06-27 22:36:00,84.6,33.5,29.99,ENE,78,0.0,1.0,16,0.00,,---,0.00,VWS V14.01,2013-06-28 05:36:00,
2013-06-27 22:41:00,85.3,34.1,29.99,ENE,69,0.0,1.0,16,0.00,,---,0.00,VWS V14.01,2013-06-28 05:41:00,
2013-06-27 22:46:00,85.7,34.4,29.99,ENE,69,0.0,0.0,16,0.00,,---,0.00,VWS V14.01,2013-06-28 05:46:00,
2013-06-27 22:51:00,85.7,34.4,29.99,ENE,69,0.0,0.0,16,0.00,,---,0.00,VWS V14.01,2013-06-28 05:51:00,
2013-06-27 22:56:00,85.4,35.7,30.00,ENE,72,0.0,0.0,17,0.00,,---,0.00,VWS V14.01,2013-06-28 05:56:00,
2013-06-27 23:01:00,84.7,35.1,29.99,ENE,72,0.0,0.0,17,0.00,,---,0.00,VWS V14.01,2013-06-28 06:01:00,
2013-06-27 23:06:00,84.1,36.1,30.00,ENE,72,0.0,0.0,18,0.00,,---,0.00,VWS V14.01,2013-06-28 06:06:00,
2013-06-27 23:11:00,83.5,38.2,30.00,ENE,72,0.0,0.0,20,0.00,,---,0.00,VWS V14.01,2013-06-28 06:11:00,
2013-06-27 23:16:00,82.7,36.3,30.00,ENE,72,0.0,0.0,19,0.00,,---,0.00,VWS V14.01,2013-06-28 06:16:00,
2013-06-27 23:21:00,82.2,37.2,30.00,ENE,72,0.0,0.0,20,0.00,,---,0.00,VWS V14.01,2013-06-28 06:21:00,
2013-06-27 23:26:00,81.9,36.9,30.00,ENE,72,0.0,0.0,20,0.00,,---,0.00,VWS V14.01,2013-06-28 06:26:00,
2013-06-27 23:31:00,82.0,38.2,30.00,ENE,63,0.0,1.0,21,0.00,,---,0.00,VWS V14.01,2013-06-28 06:31:00,
2013-06-27 23:36:00,82.2,37.2,29.99,ENE,63,0.0,1.0,20,0.00,,---,0.00,VWS V14.01,2013-06-28 06:36:00,
2013-06-27 23:41:00,82.2,35.9,29.99,ENE,65,0.0,1.0,19,0.00,,---,0.00,VWS V14.01,2013-06-28 06:41:00,
2013-06-27 23:46:00,82.1,37.1,29.99,ENE,65,0.0,0.0,20,0.00,,---,0.00,VWS V14.01,2013-06-28 06:46:00,
2013-06-27 23:51:00,81.8,36.8,29.99,ENE,65,0.0,0.0,20,0.00,,---,0.00,VWS V14.01,2013-06-28 06:51:00,
2013-06-27 23:56:00,81.2,36.4,29.99,ENE,65,0.0,0.0,20,0.00,,---,0.00,VWS V14.01,2013-06-28 06:56:00,